Meteo orario Alkaladka

Oggi, 25 Ottobre, Domenica

Tempo Temperatura Precipitazioni Vento Pressione Umidità
00:00 +12°C° 0 mm 1 m/s 747 mm Hg 78%
01:00 +12°C° 0.5 mm 1 m/s 746 mm Hg 83%
02:00 +12°C° 0.5 mm 1 m/s 746 mm Hg 88%
03:00 +10°C° 0.5 mm 2 m/s 746 mm Hg 93%
04:00 +10°C° 0.9 mm 2 m/s 745 mm Hg 93%
05:00 +11°C° 0.9 mm 3 m/s 744 mm Hg 94%
06:00 +11°C° 0.9 mm 4 m/s 744 mm Hg 95%
07:00 +12°C° 0.3 mm 5 m/s 744 mm Hg 90%
08:00 +11°C° 0.3 mm 7 m/s 744 mm Hg 85%
09:00 +12°C° 0.3 mm 8 m/s 744 mm Hg 80%
10:00 +12°C° 0 mm 8 m/s 745 mm Hg 76%
11:00 +11°C° 0 mm 8 m/s 745 mm Hg 72%
12:00 +11°C° 0 mm 8 m/s 746 mm Hg 68%
13:00 +11°C° 0 mm 8 m/s 747 mm Hg 66%
14:00 +11°C° 0 mm 7 m/s 748 mm Hg 65%
15:00 +11°C° 0 mm 6 m/s 749 mm Hg 63%
16:00 +10°C° 0 mm 6 m/s 749 mm Hg 68%
17:00 +9°C° 0 mm 5 m/s 749 mm Hg 74%
18:00 +8°C° 0 mm 4 m/s 750 mm Hg 79%
19:00 +8°C° 0 mm 4 m/s 751 mm Hg 81%
20:00 +8°C° 0 mm 3 m/s 751 mm Hg 84%
21:00 +8°C° 0 mm 3 m/s 752 mm Hg 86%
22:00 +7°C° 0 mm 3 m/s 752 mm Hg 88%
23:00 +7°C° 0 mm 3 m/s 752 mm Hg 90%

Domani, 26 Ottobre, Lunedi

Tempo Temperatura Precipitazioni Vento Pressione Umidità
00:00 +5°C° 0 mm 3 m/s 753 mm Hg 93%
01:00 +5°C° 0 mm 3 m/s 753 mm Hg 93%
02:00 +6°C° 0 mm 2 m/s 754 mm Hg 93%
03:00 +5°C° 0 mm 2 m/s 754 mm Hg 94%
04:00 +5°C° 0 mm 2 m/s 754 mm Hg 94%
05:00 +5°C° 0 mm 2 m/s 754 mm Hg 94%
06:00 +5°C° 0 mm 2 m/s 755 mm Hg 94%
07:00 +6°C° 0 mm 2 m/s 755 mm Hg 91%
08:00 +7°C° 0 mm 2 m/s 755 mm Hg 87%
09:00 +7°C° 0 mm 2 m/s 755 mm Hg 84%
10:00 +9°C° 0 mm 2 m/s 755 mm Hg 77%
11:00 +10°C° 0 mm 3 m/s 755 mm Hg 69%
12:00 +12°C° 0 mm 3 m/s 756 mm Hg 62%
13:00 +12°C° 0 mm 3 m/s 756 mm Hg 60%
14:00 +12°C° 0 mm 3 m/s 756 mm Hg 59%
15:00 +12°C° 0 mm 3 m/s 756 mm Hg 57%
16:00 +12°C° 0 mm 2 m/s 756 mm Hg 63%
17:00 +10°C° 0 mm 2 m/s 756 mm Hg 69%
18:00 +9°C° 0 mm 2 m/s 756 mm Hg 75%
19:00 +8°C° 0 mm 2 m/s 756 mm Hg 78%
20:00 +8°C° 0 mm 2 m/s 757 mm Hg 82%
21:00 +7°C° 0 mm 2 m/s 757 mm Hg 85%
22:00 +7°C° 0 mm 2 m/s 757 mm Hg 87%
23:00 +6°C° 0 mm 2 m/s 757 mm Hg 89%

Dopodomani, 27 Ottobre, Martedi

Tempo Temperatura Precipitazioni Vento Pressione Umidità
00:00 +6°C° 0 mm 2 m/s 758 mm Hg 91%
01:00 +5°C° 0 mm 2 m/s 758 mm Hg 91%
02:00 +5°C° 0 mm 2 m/s 758 mm Hg 91%
03:00 +4°C° 0 mm 2 m/s 758 mm Hg 91%
04:00 +4°C° 0 mm 2 m/s 759 mm Hg 91%
05:00 +4°C° 0 mm 2 m/s 759 mm Hg 90%
06:00 +3°C° 0 mm 2 m/s 759 mm Hg 90%
07:00 +4°C° 0 mm 2 m/s 760 mm Hg 86%
08:00 +3°C° 0 mm 3 m/s 760 mm Hg 82%
09:00 +4°C° 0 mm 3 m/s 760 mm Hg 79%
10:00 +5°C° 0 mm 3 m/s 760 mm Hg 72%
11:00 +8°C° 0 mm 3 m/s 761 mm Hg 65%
12:00 +9°C° 0 mm 2 m/s 761 mm Hg 59%
13:00 +9°C° 0 mm 2 m/s 761 mm Hg 56%
14:00 +9°C° 0 mm 2 m/s 760 mm Hg 53%
15:00 +10°C° 0 mm 2 m/s 760 mm Hg 50%
16:00 +9°C° 0 mm 3 m/s 761 mm Hg 54%
17:00 +7°C° 0 mm 3 m/s 761 mm Hg 57%
18:00 +5°C° 0 mm 3 m/s 761 mm Hg 61%
19:00 +5°C° 0 mm 3 m/s 761 mm Hg 62%
20:00 +4°C° 0 mm 3 m/s 761 mm Hg 64%
21:00 +4°C° 0 mm 3 m/s 761 mm Hg 65%
22:00 +3°C° 0 mm 3 m/s 762 mm Hg 65%
23:00 +3°C° 0 mm 3 m/s 762 mm Hg 65%

28 Ottobre, Mercoledi

Tempo Temperatura Precipitazioni Vento Pressione Umidità
00:00 +2°C° 0 mm 3 m/s 762 mm Hg 65%
01:00 +2°C° 0 mm 3 m/s 762 mm Hg 66%
02:00 +1°C° 0 mm 3 m/s 762 mm Hg 67%
03:00 +1°C° 0 mm 3 m/s 762 mm Hg 67%
04:00 +1°C° 0 mm 3 m/s 762 mm Hg 67%
05:00 0°C° 0 mm 3 m/s 762 mm Hg 67%
06:00 0°C° 0 mm 3 m/s 762 mm Hg 67%
07:00 +1°C° 0 mm 3 m/s 763 mm Hg 62%
08:00 0°C° 0 mm 4 m/s 763 mm Hg 57%
09:00 +1°C° 0 mm 4 m/s 763 mm Hg 52%
10:00 +3°C° 0 mm 4 m/s 763 mm Hg 47%
11:00 +5°C° 0 mm 4 m/s 763 mm Hg 42%
12:00 +6°C° 0 mm 4 m/s 763 mm Hg 37%
13:00 +7°C° 0 mm 4 m/s 763 mm Hg 35%
14:00 +7°C° 0 mm 4 m/s 762 mm Hg 33%
15:00 +8°C° 0 mm 4 m/s 762 mm Hg 31%
16:00 +6°C° 0 mm 4 m/s 762 mm Hg 34%
17:00 +5°C° 0 mm 4 m/s 762 mm Hg 38%
18:00 +4°C° 0 mm 3 m/s 762 mm Hg 41%
19:00 +3°C° 0 mm 4 m/s 762 mm Hg 43%
20:00 +3°C° 0 mm 4 m/s 762 mm Hg 45%
21:00 +1°C° 0 mm 4 m/s 762 mm Hg 47%
22:00 +1°C° 0 mm 4 m/s 762 mm Hg 50%
23:00 0°C° 0 mm 4 m/s 762 mm Hg 52%

29 Ottobre, Giovedi

Tempo Temperatura Precipitazioni Vento Pressione Umidità
00:00 +1°C° 0 mm 3 m/s 762 mm Hg 55%
01:00 0°C° 0 mm 3 m/s 762 mm Hg 57%
02:00 0°C° 0 mm 3 m/s 762 mm Hg 59%
03:00 0°C° 0 mm 3 m/s 762 mm Hg 61%
04:00 0°C° 0 mm 3 m/s 762 mm Hg 63%
05:00 -2°C° 0 mm 4 m/s 762 mm Hg 65%
06:00 -2°C° 0 mm 4 m/s 762 mm Hg 68%
07:00 -1°C° 0 mm 4 m/s 762 mm Hg 64%
08:00 0°C° 0 mm 5 m/s 762 mm Hg 60%
09:00 +1°C° 0 mm 5 m/s 762 mm Hg 56%
10:00 +3°C° 0 mm 6 m/s 761 mm Hg 50%
11:00 +4°C° 0 mm 6 m/s 761 mm Hg 44%
12:00 +7°C° 0 mm 6 m/s 761 mm Hg 39%
13:00 +8°C° 0 mm 6 m/s 761 mm Hg 37%
14:00 +8°C° 0 mm 6 m/s 760 mm Hg 36%
15:00 +9°C° 0 mm 6 m/s 760 mm Hg 34%
16:00 +8°C° 0 mm 6 m/s 760 mm Hg 36%
17:00 +7°C° 0 mm 6 m/s 759 mm Hg 37%
18:00 +5°C° 0 mm 6 m/s 759 mm Hg 39%
19:00 +5°C° 0 mm 6 m/s 759 mm Hg 40%
20:00 +4°C° 0 mm 6 m/s 759 mm Hg 41%
21:00 +4°C° 0 mm 6 m/s 759 mm Hg 42%
22:00 +5°C° 0 mm 5 m/s 759 mm Hg 43%
23:00 +5°C° 0 mm 5 m/s 759 mm Hg 45%

30 Ottobre, Venerdi

Tempo Temperatura Precipitazioni Vento Pressione Umidità
00:00 +5°C° 0 mm 5 m/s 759 mm Hg 46%
01:00 +5°C° 0 mm 4 m/s 759 mm Hg 48%
02:00 +4°C° 0 mm 4 m/s 758 mm Hg 50%
03:00 +4°C° 0 mm 4 m/s 758 mm Hg 52%
04:00 +4°C° 0 mm 4 m/s 758 mm Hg 55%
05:00 +4°C° 0 mm 4 m/s 758 mm Hg 58%
06:00 +3°C° 0 mm 4 m/s 758 mm Hg 62%
07:00 +3°C° 0 mm 5 m/s 758 mm Hg 62%
08:00 +3°C° 0 mm 5 m/s 757 mm Hg 63%
09:00 +3°C° 0 mm 5 m/s 757 mm Hg 64%
10:00 +5°C° 0 mm 5 m/s 757 mm Hg 61%
11:00 +6°C° 0 mm 5 m/s 757 mm Hg 59%
12:00 +7°C° 0 mm 5 m/s 757 mm Hg 57%
13:00 +8°C° 0 mm 4 m/s 756 mm Hg 57%
14:00 +8°C° 0 mm 4 m/s 756 mm Hg 56%
15:00 +10°C° 0 mm 4 m/s 756 mm Hg 56%
16:00 +9°C° 0 mm 3 m/s 756 mm Hg 58%
17:00 +9°C° 0 mm 3 m/s 756 mm Hg 60%
18:00 +9°C° 0 mm 3 m/s 756 mm Hg 62%
19:00 +9°C° 0 mm 3 m/s 756 mm Hg 65%
20:00 +9°C° 0 mm 3 m/s 756 mm Hg 69%
21:00 +7°C° 0 mm 4 m/s 756 mm Hg 72%
22:00 +7°C° 0.3 mm 4 m/s 756 mm Hg 76%
23:00 +6°C° 0.3 mm 4 m/s 756 mm Hg 80%
Mostrare altro

Abbiamo bisogno del tuo consenso

Meteoprog e i nostri fornitori di servizi possono memorizzare e accedere a dati personali come cookie, identificatori di dispositivi o altre tecnologie simili sul tuo dispositivo e possono elaborare tali dati per personalizzare i contenuti e gli annunci, nonché fornire funzionalità dei social media e analizzarne il traffico.

  • Archiviare e/o accedere alle informazioni sul tuo dispositivo

    Cookie, identificatori di dispositivi o altre informazioni possono essere memorizzati o resi accessibili sul tuo dispositivo per le finalità sopra indicate.

  • Annunci e contenuti personalizzati, misurazione di annunci e contenuti, approfondimenti sul pubblico e sviluppo di prodotti

    Gli annunci e i contenuti possono essere personalizzati in base a un profilo. È possibile aggiungere più dati per personalizzare meglio annunci e contenuti. È possibile misurare il rendimento degli annunci e dei contenuti. È possibile ricavare informazioni sul pubblico che ha visto gli annunci e i contenuti. Tali dati possono essere utilizzati per sviluppare o migliorare l'esperienza, i sistemi e il software dell'utente.

Cliccando su “Accetto”, acconsenti all'uso di cookie, identificatori di dispositivo, web beacon o altre tecnologie simili. Puoi modificare le impostazioni nel browser del tuo dispositivo.

Per determinati scopi, è possibile fare affidamento su interessi legali, piuttosto che sul consenso. Puoi approfondire questo argomento consultando la nostra Informativa sulla privacy e sui cookie.